owner,sensor,date,latitude,longitude,air_pressure(mBar),qcFlag 
TCOON,ioos:station:TCOON:003:1,2009-02-04T16:00:00Z,26.8015,-97.4706,1034.1,11111222 
TCOON,ioos:station:TCOON:003:1,2009-02-04T17:00:00Z,26.8015,-97.4706,1034.0,11111222 
TCOON,ioos:station:TCOON:003:1,2009-02-04T18:00:00Z,26.8015,-97.4706,1033.1,11111222 
TCOON,ioos:station:TCOON:003:1,2009-02-04T19:00:00Z,26.8015,-97.4706,1032.4,11111222 
TCOON,ioos:station:TCOON:003:1,2009-02-04T20:00:00Z,26.8015,-97.4706,1032.0,11111222 
TCOON,ioos:station:TCOON:003:1,2009-02-04T21:00:00Z,26.8015,-97.4706,1031.9,11111222 
TCOON,ioos:station:TCOON:003:1,2009-02-04T22:00:00Z,26.8015,-97.4706,1032.1,11111222 
TCOON,ioos:station:TCOON:003:1,2009-02-04T23:00:00Z,26.8015,-97.4706,1032.4,11111222 
TCOON,ioos:station:TCOON:003:1,2009-02-05T00:00:00Z,26.8015,-97.4706,1032.7,11111222 
TCOON,ioos:station:TCOON:003:1,2009-02-05T01:00:00Z,26.8015,-97.4706,1033.1,11111222 
TCOON,ioos:station:TCOON:003:1,2009-02-05T02:00:00Z,26.8015,-97.4706,1033.6,11111222 
TCOON,ioos:station:TCOON:003:1,2009-02-05T03:00:00Z,26.8015,-97.4706,1033.5,11111222 
TCOON,ioos:station:TCOON:003:1,2009-02-05T04:00:00Z,26.8015,-97.4706,1033.5,11111222 
TCOON,ioos:station:TCOON:003:1,2009-02-05T05:00:00Z,26.8015,-97.4706,1033.3,11111222 
TCOON,ioos:station:TCOON:003:1,2009-02-05T06:00:00Z,26.8015,-97.4706,1032.9,11111222 
TCOON,ioos:station:TCOON:003:1,2009-02-05T07:00:00Z,26.8015,-97.4706,1032.3,11111222 
TCOON,ioos:station:TCOON:003:1,2009-02-05T08:00:00Z,26.8015,-97.4706,1031.7,11111222 
TCOON,ioos:station:TCOON:003:1,2009-02-05T09:00:00Z,26.8015,-97.4706,1031.7,11111222 
TCOON,ioos:station:TCOON:003:1,2009-02-05T10:00:00Z,26.8015,-97.4706,1031.5,11111222 
TCOON,ioos:station:TCOON:003:1,2009-02-05T11:00:00Z,26.8015,-97.4706,1031.5,11111222 
TCOON,ioos:station:TCOON:003:1,2009-02-05T12:00:00Z,26.8015,-97.4706,1031.7,11111222 
TCOON,ioos:station:TCOON:003:1,2009-02-05T13:00:00Z,26.8015,-97.4706,1032.1,11111222 
TCOON,ioos:station:TCOON:003:1,2009-02-05T14:00:00Z,26.8015,-97.4706,1032.5,11111222 
TCOON,ioos:station:TCOON:003:1,2009-02-05T15:00:00Z,26.8015,-97.4706,1033.0,11111222 
TCOON,ioos:station:TCOON:003:1,2009-02-05T16:00:00Z,26.8015,-97.4706,1033.0,11111222 
TCOON,ioos:station:TCOON:003:1,2009-02-05T17:00:00Z,26.8015,-97.4706,1032.3,11111222 
TCOON,ioos:station:TCOON:003:1,2009-02-05T18:00:00Z,26.8015,-97.4706,1031.1,11111222 
TCOON,ioos:station:TCOON:003:1,2009-02-05T19:00:00Z,26.8015,-97.4706,1030.3,11111222 
TCOON,ioos:station:TCOON:003:1,2009-02-05T20:00:00Z,26.8015,-97.4706,1029.4,11111222 
TCOON,ioos:station:TCOON:003:1,2009-02-05T21:00:00Z,26.8015,-97.4706,1029.0,11111222 
TCOON,ioos:station:TCOON:003:1,2009-02-05T22:00:00Z,26.8015,-97.4706,1029.0,11111222 
TCOON,ioos:station:TCOON:003:1,2009-02-05T23:00:00Z,26.8015,-97.4706,1028.9,11111222 
TCOON,ioos:station:TCOON:003:1,2009-02-06T00:00:00Z,26.8015,-97.4706,1029.1,11111222 
TCOON,ioos:station:TCOON:003:1,2009-02-06T01:00:00Z,26.8015,-97.4706,1029.3,11111222 
TCOON,ioos:station:TCOON:003:1,2009-02-06T02:00:00Z,26.8015,-97.4706,1029.4,11111222 
TCOON,ioos:station:TCOON:003:1,2009-02-06T03:00:00Z,26.8015,-97.4706,1029.3,11111222 
TCOON,ioos:station:TCOON:003:1,2009-02-06T04:00:00Z,26.8015,-97.4706,1029.0,11111222 
TCOON,ioos:station:TCOON:003:1,2009-02-06T05:00:00Z,26.8015,-97.4706,1028.4,11111222 
TCOON,ioos:station:TCOON:003:1,2009-02-06T06:00:00Z,26.8015,-97.4706,1028.0,11111222 
TCOON,ioos:station:TCOON:003:1,2009-02-06T07:00:00Z,26.8015,-97.4706,1027.4,11111222 
TCOON,ioos:station:TCOON:003:1,2009-02-06T08:00:00Z,26.8015,-97.4706,1027.0,11111222 
TCOON,ioos:station:TCOON:003:1,2009-02-06T09:00:00Z,26.8015,-97.4706,1026.6,11111222 
TCOON,ioos:station:TCOON:003:1,2009-02-06T10:00:00Z,26.8015,-97.4706,1026.2,11111222 
TCOON,ioos:station:TCOON:003:1,2009-02-06T11:00:00Z,26.8015,-97.4706,1025.9,11111222 
TCOON,ioos:station:TCOON:003:1,2009-02-06T12:00:00Z,26.8015,-97.4706,1025.9,11111222 
TCOON,ioos:station:TCOON:003:1,2009-02-06T13:00:00Z,26.8015,-97.4706,1026.0,11111222 
TCOON,ioos:station:TCOON:003:1,2009-02-06T14:00:00Z,26.8015,-97.4706,1026.5,11111222 
TCOON,ioos:station:TCOON:003:1,2009-02-06T15:00:00Z,26.8015,-97.4706,1027.1,11111222 
TCOON,ioos:station:TCOON:003:1,2009-02-06T16:00:00Z,26.8015,-97.4706,1026.9,11111222 
TCOON,ioos:station:TCOON:003:1,2009-02-06T17:00:00Z,26.8015,-97.4706,1026.4,11111222 
TCOON,ioos:station:TCOON:003:1,2009-02-06T18:00:00Z,26.8015,-97.4706,1025.5,11111222 
TCOON,ioos:station:TCOON:003:1,2009-02-06T19:00:00Z,26.8015,-97.4706,1024.5,11111222 
TCOON,ioos:station:TCOON:003:1,2009-02-06T20:00:00Z,26.8015,-97.4706,1023.8,11111222 
TCOON,ioos:station:TCOON:003:1,2009-02-06T21:00:00Z,26.8015,-97.4706,1023.4,11111222 
TCOON,ioos:station:TCOON:003:1,2009-02-06T22:00:00Z,26.8015,-97.4706,1023.1,11111222 
TCOON,ioos:station:TCOON:003:1,2009-02-06T23:00:00Z,26.8015,-97.4706,1022.9,11111222 
TCOON,ioos:station:TCOON:003:1,2009-02-07T00:00:00Z,26.8015,-97.4706,1023.3,11111222 
TCOON,ioos:station:TCOON:003:1,2009-02-07T01:00:00Z,26.8015,-97.4706,1023.7,11111222 
TCOON,ioos:station:TCOON:003:1,2009-02-07T02:00:00Z,26.8015,-97.4706,1023.8,11111222 
TCOON,ioos:station:TCOON:003:1,2009-02-07T03:00:00Z,26.8015,-97.4706,1024.2,11111222 
TCOON,ioos:station:TCOON:003:1,2009-02-07T04:00:00Z,26.8015,-97.4706,1024.2,11111222 
TCOON,ioos:station:TCOON:003:1,2009-02-07T05:00:00Z,26.8015,-97.4706,1023.9,11111222 
TCOON,ioos:station:TCOON:003:1,2009-02-07T06:00:00Z,26.8015,-97.4706,1023.6,11111222 
TCOON,ioos:station:TCOON:003:1,2009-02-07T07:00:00Z,26.8015,-97.4706,1023.0,11111222 
TCOON,ioos:station:TCOON:003:1,2009-02-07T08:00:00Z,26.8015,-97.4706,1022.6,11111222 
TCOON,ioos:station:TCOON:003:1,2009-02-07T09:00:00Z,26.8015,-97.4706,1022.9,11111222 
TCOON,ioos:station:TCOON:003:1,2009-02-07T10:00:00Z,26.8015,-97.4706,1023.0,11111222 
TCOON,ioos:station:TCOON:003:1,2009-02-07T11:00:00Z,26.8015,-97.4706,1023.4,11111222 
TCOON,ioos:station:TCOON:003:1,2009-02-07T12:00:00Z,26.8015,-97.4706,1023.5,11111222 
TCOON,ioos:station:TCOON:003:1,2009-02-07T13:00:00Z,26.8015,-97.4706,1023.5,11111222 
TCOON,ioos:station:TCOON:003:1,2009-02-07T14:00:00Z,26.8015,-97.4706,1024.2,11111222 
TCOON,ioos:station:TCOON:003:1,2009-02-07T15:00:00Z,26.8015,-97.4706,1025.0,11111222 
TCOON,ioos:station:TCOON:003:1,2009-02-07T16:00:00Z,26.8015,-97.4706,1025.6,11111222 
TCOON,ioos:station:TCOON:003:1,2009-02-07T17:00:00Z,26.8015,-97.4706,1025.1,11111222 
TCOON,ioos:station:TCOON:003:1,2009-02-07T18:00:00Z,26.8015,-97.4706,1024.1,11111222 
TCOON,ioos:station:TCOON:003:1,2009-02-07T19:00:00Z,26.8015,-97.4706,1023.3,11111222 
TCOON,ioos:station:TCOON:003:1,2009-02-07T20:00:00Z,26.8015,-97.4706,1022.9,11111222 
TCOON,ioos:station:TCOON:003:1,2009-02-07T21:00:00Z,26.8015,-97.4706,1022.5,11111222 
TCOON,ioos:station:TCOON:003:1,2009-02-07T22:00:00Z,26.8015,-97.4706,1022.8,11111222 
TCOON,ioos:station:TCOON:003:1,2009-02-07T23:00:00Z,26.8015,-97.4706,1023.0,11111222 
TCOON,ioos:station:TCOON:003:1,2009-02-08T00:00:00Z,26.8015,-97.4706,1023.2,11111222 
TCOON,ioos:station:TCOON:003:1,2009-02-08T01:00:00Z,26.8015,-97.4706,1023.3,11111222 
TCOON,ioos:station:TCOON:003:1,2009-02-08T02:00:00Z,26.8015,-97.4706,1023.8,11111222 
TCOON,ioos:station:TCOON:003:1,2009-02-08T03:00:00Z,26.8015,-97.4706,1023.5,11111222 
TCOON,ioos:station:TCOON:003:1,2009-02-08T04:00:00Z,26.8015,-97.4706,1023.9,11111222 
TCOON,ioos:station:TCOON:003:1,2009-02-08T05:00:00Z,26.8015,-97.4706,1023.1,11111222 
TCOON,ioos:station:TCOON:003:1,2009-02-08T06:00:00Z,26.8015,-97.4706,1022.9,11111222 
TCOON,ioos:station:TCOON:003:1,2009-02-08T07:00:00Z,26.8015,-97.4706,1022.1,11111222 
TCOON,ioos:station:TCOON:003:1,2009-02-08T08:00:00Z,26.8015,-97.4706,1022.1,11111222 
TCOON,ioos:station:TCOON:003:1,2009-02-08T09:00:00Z,26.8015,-97.4706,1021.7,11111222 
TCOON,ioos:station:TCOON:003:1,2009-02-08T10:00:00Z,26.8015,-97.4706,1021.5,11111222 
TCOON,ioos:station:TCOON:003:1,2009-02-08T11:00:00Z,26.8015,-97.4706,1021.3,11111222 
TCOON,ioos:station:TCOON:003:1,2009-02-08T12:00:00Z,26.8015,-97.4706,1021.2,11111222 
TCOON,ioos:station:TCOON:003:1,2009-02-08T13:00:00Z,26.8015,-97.4706,1021.5,11111222 
TCOON,ioos:station:TCOON:003:1,2009-02-08T14:00:00Z,26.8015,-97.4706,1022.0,11111222 
TCOON,ioos:station:TCOON:003:1,2009-02-08T15:00:00Z,26.8015,-97.4706,1022.3,11111222 
TCOON,ioos:station:TCOON:003:1,2009-02-08T16:00:00Z,26.8015,-97.4706,1022.5,11111222 
TCOON,ioos:station:TCOON:003:1,2009-02-08T17:00:00Z,26.8015,-97.4706,1022.0,11111222 
TCOON,ioos:station:TCOON:003:1,2009-02-08T18:00:00Z,26.8015,-97.4706,1020.9,11111222 
TCOON,ioos:station:TCOON:003:1,2009-02-08T19:00:00Z,26.8015,-97.4706,1020.0,11111222 
TCOON,ioos:station:TCOON:003:1,2009-02-08T20:00:00Z,26.8015,-97.4706,1019.3,11111222 
TCOON,ioos:station:TCOON:003:1,2009-02-08T21:00:00Z,26.8015,-97.4706,1018.6,11111222 
TCOON,ioos:station:TCOON:003:1,2009-02-08T22:00:00Z,26.8015,-97.4706,1017.9,11111222 
TCOON,ioos:station:TCOON:003:1,2009-02-08T23:00:00Z,26.8015,-97.4706,1017.5,11111222 
TCOON,ioos:station:TCOON:003:1,2009-02-09T00:00:00Z,26.8015,-97.4706,1017.1,11111222 
TCOON,ioos:station:TCOON:003:1,2009-02-09T01:00:00Z,26.8015,-97.4706,1016.4,11111222 
TCOON,ioos:station:TCOON:003:1,2009-02-09T02:00:00Z,26.8015,-97.4706,1015.8,11111222 
TCOON,ioos:station:TCOON:003:1,2009-02-09T03:00:00Z,26.8015,-97.4706,1015.2,11111222 
TCOON,ioos:station:TCOON:003:1,2009-02-09T04:00:00Z,26.8015,-97.4706,1014.5,11111222 
TCOON,ioos:station:TCOON:003:1,2009-02-09T05:00:00Z,26.8015,-97.4706,1015.9,11111222 
TCOON,ioos:station:TCOON:003:1,2009-02-09T06:00:00Z,26.8015,-97.4706,1015.4,11111222 
TCOON,ioos:station:TCOON:003:1,2009-02-09T07:00:00Z,26.8015,-97.4706,1014.6,11111222 
TCOON,ioos:station:TCOON:003:1,2009-02-09T08:00:00Z,26.8015,-97.4706,1013.6,11111222 
TCOON,ioos:station:TCOON:003:1,2009-02-09T09:00:00Z,26.8015,-97.4706,1013.6,11111222 
TCOON,ioos:station:TCOON:003:1,2009-02-09T10:00:00Z,26.8015,-97.4706,1013.8,11111222 
TCOON,ioos:station:TCOON:003:1,2009-02-09T11:00:00Z,26.8015,-97.4706,1014.0,11111222 
TCOON,ioos:station:TCOON:003:1,2009-02-09T12:00:00Z,26.8015,-97.4706,1014.4,11111222 
TCOON,ioos:station:TCOON:003:1,2009-02-09T13:00:00Z,26.8015,-97.4706,1015.2,11111222 
TCOON,ioos:station:TCOON:003:1,2009-02-09T14:00:00Z,26.8015,-97.4706,1016.3,11111222 
TCOON,ioos:station:TCOON:003:1,2009-02-09T15:00:00Z,26.8015,-97.4706,1017.3,11111222 
TCOON,ioos:station:TCOON:003:1,2009-02-09T16:00:00Z,26.8015,-97.4706,1016.8,11111222 
TCOON,ioos:station:TCOON:003:1,2009-02-09T17:00:00Z,26.8015,-97.4706,1016.1,11111222 
TCOON,ioos:station:TCOON:003:1,2009-02-09T18:00:00Z,26.8015,-97.4706,1015.3,11111222 
TCOON,ioos:station:TCOON:003:1,2009-02-09T19:00:00Z,26.8015,-97.4706,1014.1,11111222 
TCOON,ioos:station:TCOON:003:1,2009-02-09T20:00:00Z,26.8015,-97.4706,1013.7,11111222 
TCOON,ioos:station:TCOON:003:1,2009-02-09T21:00:00Z,26.8015,-97.4706,1013.3,11111222 
TCOON,ioos:station:TCOON:003:1,2009-02-09T22:00:00Z,26.8015,-97.4706,1013.7,11111222 
TCOON,ioos:station:TCOON:003:1,2009-02-09T23:00:00Z,26.8015,-97.4706,1014.1,11111222 
TCOON,ioos:station:TCOON:003:1,2009-02-10T00:00:00Z,26.8015,-97.4706,1014.4,11111222 
TCOON,ioos:station:TCOON:003:1,2009-02-10T01:00:00Z,26.8015,-97.4706,1014.5,11111222 
TCOON,ioos:station:TCOON:003:1,2009-02-10T02:00:00Z,26.8015,-97.4706,1014.8,11111222 
TCOON,ioos:station:TCOON:003:1,2009-02-10T03:00:00Z,26.8015,-97.4706,1015.1,11111222 
TCOON,ioos:station:TCOON:003:1,2009-02-10T04:00:00Z,26.8015,-97.4706,1015.0,11111222 
TCOON,ioos:station:TCOON:003:1,2009-02-10T05:00:00Z,26.8015,-97.4706,1015.0,11111222 
TCOON,ioos:station:TCOON:003:1,2009-02-10T06:00:00Z,26.8015,-97.4706,1014.1,11111222 
TCOON,ioos:station:TCOON:003:1,2009-02-10T07:00:00Z,26.8015,-97.4706,1013.7,11111222 
TCOON,ioos:station:TCOON:003:1,2009-02-10T08:00:00Z,26.8015,-97.4706,1013.2,11111222 
TCOON,ioos:station:TCOON:003:1,2009-02-10T09:00:00Z,26.8015,-97.4706,1012.8,11111222 
TCOON,ioos:station:TCOON:003:1,2009-02-10T10:00:00Z,26.8015,-97.4706,1012.4,11111222 
TCOON,ioos:station:TCOON:003:1,2009-02-10T11:00:00Z,26.8015,-97.4706,1012.2,11111222 
TCOON,ioos:station:TCOON:003:1,2009-02-10T12:00:00Z,26.8015,-97.4706,1012.4,11111222 
TCOON,ioos:station:TCOON:003:1,2009-02-10T13:00:00Z,26.8015,-97.4706,1012.6,11111222 
TCOON,ioos:station:TCOON:003:1,2009-02-10T14:00:00Z,26.8015,-97.4706,1013.0,11111222 
TCOON,ioos:station:TCOON:003:1,2009-02-10T15:00:00Z,26.8015,-97.4706,1012.8,11111222 
TCOON,ioos:station:TCOON:003:1,2009-02-10T16:00:00Z,26.8015,-97.4706,1012.1,11111222 
TCOON,ioos:station:TCOON:003:1,2009-02-10T17:00:00Z,26.8015,-97.4706,1011.2,11111222 
TCOON,ioos:station:TCOON:003:1,2009-02-10T18:00:00Z,26.8015,-97.4706,1009.5,11111222 
TCOON,ioos:station:TCOON:003:1,2009-02-10T19:00:00Z,26.8015,-97.4706,1008.0,11111222 
TCOON,ioos:station:TCOON:003:1,2009-02-10T20:00:00Z,26.8015,-97.4706,1007.2,11111222 
TCOON,ioos:station:TCOON:003:1,2009-02-10T21:00:00Z,26.8015,-97.4706,1006.7,11111222 
TCOON,ioos:station:TCOON:003:1,2009-02-10T22:00:00Z,26.8015,-97.4706,1006.9,11111222 
TCOON,ioos:station:TCOON:003:1,2009-02-10T23:00:00Z,26.8015,-97.4706,1006.7,11111222 
TCOON,ioos:station:TCOON:003:1,2009-02-11T00:00:00Z,26.8015,-97.4706,1007.7,11111222 
TCOON,ioos:station:TCOON:003:1,2009-02-11T01:00:00Z,26.8015,-97.4706,1007.6,11111222 
TCOON,ioos:station:TCOON:003:1,2009-02-11T02:00:00Z,26.8015,-97.4706,1008.3,11111222 
TCOON,ioos:station:TCOON:003:1,2009-02-11T03:00:00Z,26.8015,-97.4706,1008.6,11111222 
TCOON,ioos:station:TCOON:003:1,2009-02-11T04:00:00Z,26.8015,-97.4706,1008.9,11111222 
TCOON,ioos:station:TCOON:003:1,2009-02-11T05:00:00Z,26.8015,-97.4706,1009.1,11111222 
TCOON,ioos:station:TCOON:003:1,2009-02-11T06:00:00Z,26.8015,-97.4706,1010.0,11111222 
TCOON,ioos:station:TCOON:003:1,2009-02-11T07:00:00Z,26.8015,-97.4706,1015.3,11111222 
TCOON,ioos:station:TCOON:003:1,2009-02-11T08:00:00Z,26.8015,-97.4706,1015.9,11111222 
TCOON,ioos:station:TCOON:003:1,2009-02-11T09:00:00Z,26.8015,-97.4706,1016.4,11111222 
TCOON,ioos:station:TCOON:003:1,2009-02-11T10:00:00Z,26.8015,-97.4706,1016.9,11111222 
TCOON,ioos:station:TCOON:003:1,2009-02-11T11:00:00Z,26.8015,-97.4706,1017.8,11111222 
TCOON,ioos:station:TCOON:003:1,2009-02-11T12:00:00Z,26.8015,-97.4706,1019.1,11111222 
TCOON,ioos:station:TCOON:003:1,2009-02-11T13:00:00Z,26.8015,-97.4706,1020.1,11111222 
TCOON,ioos:station:TCOON:003:1,2009-02-11T14:00:00Z,26.8015,-97.4706,1021.3,11111222 
TCOON,ioos:station:TCOON:003:1,2009-02-11T15:00:00Z,26.8015,-97.4706,1021.9,11111222 
TCOON,ioos:station:TCOON:003:1,2009-02-11T16:00:00Z,26.8015,-97.4706,1022.2,11111222 
TCOON,ioos:station:TCOON:003:1,2009-02-11T17:00:00Z,26.8015,-97.4706,1022.2,11111222 
TCOON,ioos:station:TCOON:003:1,2009-02-11T18:00:00Z,26.8015,-97.4706,1021.4,11111222 
TCOON,ioos:station:TCOON:003:1,2009-02-11T19:00:00Z,26.8015,-97.4706,1020.6,11111222 
TCOON,ioos:station:TCOON:003:1,2009-02-11T20:00:00Z,26.8015,-97.4706,1019.9,11111222 
TCOON,ioos:station:TCOON:003:1,2009-02-11T21:00:00Z,26.8015,-97.4706,1019.6,11111222 
TCOON,ioos:station:TCOON:003:1,2009-02-11T22:00:00Z,26.8015,-97.4706,1020.0,11111222 
TCOON,ioos:station:TCOON:003:1,2009-02-11T23:00:00Z,26.8015,-97.4706,1020.2,11111222 
TCOON,ioos:station:TCOON:003:1,2009-02-12T00:00:00Z,26.8015,-97.4706,1020.6,11111222 
TCOON,ioos:station:TCOON:003:1,2009-02-12T01:00:00Z,26.8015,-97.4706,1021.1,11111222 
TCOON,ioos:station:TCOON:003:1,2009-02-12T02:00:00Z,26.8015,-97.4706,1021.5,11111222 
TCOON,ioos:station:TCOON:003:1,2009-02-12T03:00:00Z,26.8015,-97.4706,1021.7,11111222 
TCOON,ioos:station:TCOON:003:1,2009-02-12T04:00:00Z,26.8015,-97.4706,1021.8,11111222 
TCOON,ioos:station:TCOON:003:1,2009-02-12T05:00:00Z,26.8015,-97.4706,1022.0,11111222 
TCOON,ioos:station:TCOON:003:1,2009-02-12T06:00:00Z,26.8015,-97.4706,1021.8,11111222 
TCOON,ioos:station:TCOON:003:1,2009-02-12T07:00:00Z,26.8015,-97.4706,1021.6,11111222 
TCOON,ioos:station:TCOON:003:1,2009-02-12T08:00:00Z,26.8015,-97.4706,1021.3,11111222 
TCOON,ioos:station:TCOON:003:1,2009-02-12T09:00:00Z,26.8015,-97.4706,1021.0,11111222 
TCOON,ioos:station:TCOON:003:1,2009-02-12T10:00:00Z,26.8015,-97.4706,1021.0,11111222 
TCOON,ioos:station:TCOON:003:1,2009-02-12T11:00:00Z,26.8015,-97.4706,1021.2,11111222 
TCOON,ioos:station:TCOON:003:1,2009-02-12T12:00:00Z,26.8015,-97.4706,1021.6,11111222 
TCOON,ioos:station:TCOON:003:1,2009-02-12T13:00:00Z,26.8015,-97.4706,1021.9,11111222 
TCOON,ioos:station:TCOON:003:1,2009-02-12T14:00:00Z,26.8015,-97.4706,1021.9,11111222 
TCOON,ioos:station:TCOON:003:1,2009-02-12T15:00:00Z,26.8015,-97.4706,1022.7,11111222 
TCOON,ioos:station:TCOON:003:1,2009-02-12T16:00:00Z,26.8015,-97.4706,1022.4,11111222 
TCOON,ioos:station:TCOON:003:1,2009-02-12T17:00:00Z,26.8015,-97.4706,1021.3,11111222 
TCOON,ioos:station:TCOON:003:1,2009-02-12T18:00:00Z,26.8015,-97.4706,1020.8,11111222 
TCOON,ioos:station:TCOON:003:1,2009-02-12T19:00:00Z,26.8015,-97.4706,1019.4,11111222 
TCOON,ioos:station:TCOON:003:1,2009-02-12T20:00:00Z,26.8015,-97.4706,1018.3,11111222 
TCOON,ioos:station:TCOON:003:1,2009-02-12T21:00:00Z,26.8015,-97.4706,1017.6,11111222 
TCOON,ioos:station:TCOON:003:1,2009-02-12T22:00:00Z,26.8015,-97.4706,1017.6,11111222 
TCOON,ioos:station:TCOON:003:1,2009-02-12T23:00:00Z,26.8015,-97.4706,1017.9,11111222 
TCOON,ioos:station:TCOON:003:1,2009-02-13T00:00:00Z,26.8015,-97.4706,1017.4,11111222 
TCOON,ioos:station:TCOON:003:1,2009-02-13T01:00:00Z,26.8015,-97.4706,1017.4,11111222 
TCOON,ioos:station:TCOON:003:1,2009-02-13T02:00:00Z,26.8015,-97.4706,1017.6,11111222 
TCOON,ioos:station:TCOON:003:1,2009-02-13T03:00:00Z,26.8015,-97.4706,1017.3,11111222 
TCOON,ioos:station:TCOON:003:1,2009-02-13T04:00:00Z,26.8015,-97.4706,1016.9,11111222 
TCOON,ioos:station:TCOON:003:1,2009-02-13T05:00:00Z,26.8015,-97.4706,1016.6,11111222 
TCOON,ioos:station:TCOON:003:1,2009-02-13T06:00:00Z,26.8015,-97.4706,1016.2,11111222 
TCOON,ioos:station:TCOON:003:1,2009-02-13T07:00:00Z,26.8015,-97.4706,1015.8,11111222 
TCOON,ioos:station:TCOON:003:1,2009-02-13T08:00:00Z,26.8015,-97.4706,1015.6,11111222 
TCOON,ioos:station:TCOON:003:1,2009-02-13T09:00:00Z,26.8015,-97.4706,1015.0,11111222 
TCOON,ioos:station:TCOON:003:1,2009-02-13T10:00:00Z,26.8015,-97.4706,1015.1,11111222 
TCOON,ioos:station:TCOON:003:1,2009-02-13T11:00:00Z,26.8015,-97.4706,1015.1,11111222 
TCOON,ioos:station:TCOON:003:1,2009-02-13T12:00:00Z,26.8015,-97.4706,1015.6,11111222 
TCOON,ioos:station:TCOON:003:1,2009-02-13T13:00:00Z,26.8015,-97.4706,1015.7,11111222 
TCOON,ioos:station:TCOON:003:1,2009-02-13T14:00:00Z,26.8015,-97.4706,1015.6,11111222 
TCOON,ioos:station:TCOON:003:1,2009-02-13T15:00:00Z,26.8015,-97.4706,1015.7,11111222 
TCOON,ioos:station:TCOON:003:1,2009-02-13T16:00:00Z,26.8015,-97.4706,1015.7,11111222 
TCOON,ioos:station:TCOON:003:1,2009-02-13T17:00:00Z,26.8015,-97.4706,1014.9,11111222 
TCOON,ioos:station:TCOON:003:1,2009-02-13T18:00:00Z,26.8015,-97.4706,1013.6,11111222 
TCOON,ioos:station:TCOON:003:1,2009-02-13T19:00:00Z,26.8015,-97.4706,1012.6,11111222 
TCOON,ioos:station:TCOON:003:1,2009-02-13T20:00:00Z,26.8015,-97.4706,1011.8,11111222 
TCOON,ioos:station:TCOON:003:1,2009-02-13T21:00:00Z,26.8015,-97.4706,1011.1,11111222 
TCOON,ioos:station:TCOON:003:1,2009-02-13T22:00:00Z,26.8015,-97.4706,1011.0,11111222 
TCOON,ioos:station:TCOON:003:1,2009-02-13T23:00:00Z,26.8015,-97.4706,1011.5,11111222 
TCOON,ioos:station:TCOON:003:1,2009-02-14T00:00:00Z,26.8015,-97.4706,1011.8,11111222 
TCOON,ioos:station:TCOON:003:1,2009-02-14T01:00:00Z,26.8015,-97.4706,1012.6,11111222 
TCOON,ioos:station:TCOON:003:1,2009-02-14T02:00:00Z,26.8015,-97.4706,1012.9,11111222 
TCOON,ioos:station:TCOON:003:1,2009-02-14T03:00:00Z,26.8015,-97.4706,1013.6,11111222 
TCOON,ioos:station:TCOON:003:1,2009-02-14T04:00:00Z,26.8015,-97.4706,1014.3,11111222 
TCOON,ioos:station:TCOON:003:1,2009-02-14T05:00:00Z,26.8015,-97.4706,1013.6,11111222 
TCOON,ioos:station:TCOON:003:1,2009-02-14T06:00:00Z,26.8015,-97.4706,1012.9,11111222 
TCOON,ioos:station:TCOON:003:1,2009-02-14T07:00:00Z,26.8015,-97.4706,1012.2,11111222 
TCOON,ioos:station:TCOON:003:1,2009-02-14T08:00:00Z,26.8015,-97.4706,1011.8,11111222 
TCOON,ioos:station:TCOON:003:1,2009-02-14T09:00:00Z,26.8015,-97.4706,1012.0,11111222 
TCOON,ioos:station:TCOON:003:1,2009-02-14T10:00:00Z,26.8015,-97.4706,1012.3,11111222 
TCOON,ioos:station:TCOON:003:1,2009-02-14T11:00:00Z,26.8015,-97.4706,1012.1,11111222 
TCOON,ioos:station:TCOON:003:1,2009-02-14T12:00:00Z,26.8015,-97.4706,1012.7,11111222 
TCOON,ioos:station:TCOON:003:1,2009-02-14T13:00:00Z,26.8015,-97.4706,1013.0,11111222 
TCOON,ioos:station:TCOON:003:1,2009-02-14T14:00:00Z,26.8015,-97.4706,1013.9,11111222 
TCOON,ioos:station:TCOON:003:1,2009-02-14T15:00:00Z,26.8015,-97.4706,1014.7,11111222 
TCOON,ioos:station:TCOON:003:1,2009-02-14T16:00:00Z,26.8015,-97.4706,1014.3,11111222 
TCOON,ioos:station:TCOON:003:1,2009-02-14T17:00:00Z,26.8015,-97.4706,1013.7,11111222 
TCOON,ioos:station:TCOON:003:1,2009-02-14T18:00:00Z,26.8015,-97.4706,1012.2,11111222 
TCOON,ioos:station:TCOON:003:1,2009-02-14T19:00:00Z,26.8015,-97.4706,1011.7,11111222 
TCOON,ioos:station:TCOON:003:1,2009-02-14T20:00:00Z,26.8015,-97.4706,1011.1,11111222 
TCOON,ioos:station:TCOON:003:1,2009-02-14T21:00:00Z,26.8015,-97.4706,1011.3,11111222 
TCOON,ioos:station:TCOON:003:1,2009-02-14T22:00:00Z,26.8015,-97.4706,1011.6,11111222 
TCOON,ioos:station:TCOON:003:1,2009-02-14T23:00:00Z,26.8015,-97.4706,1011.8,11111222 
TCOON,ioos:station:TCOON:003:1,2009-02-15T00:00:00Z,26.8015,-97.4706,1012.0,11111222 
TCOON,ioos:station:TCOON:003:1,2009-02-15T01:00:00Z,26.8015,-97.4706,1013.3,11111222 
TCOON,ioos:station:TCOON:003:1,2009-02-15T02:00:00Z,26.8015,-97.4706,1014.6,11111222 
TCOON,ioos:station:TCOON:003:1,2009-02-15T03:00:00Z,26.8015,-97.4706,1014.6,11111222 
TCOON,ioos:station:TCOON:003:1,2009-02-15T04:00:00Z,26.8015,-97.4706,1015.0,11111222 
TCOON,ioos:station:TCOON:003:1,2009-02-15T05:00:00Z,26.8015,-97.4706,1014.9,11111222 
TCOON,ioos:station:TCOON:003:1,2009-02-15T06:00:00Z,26.8015,-97.4706,1014.9,11111222 
TCOON,ioos:station:TCOON:003:1,2009-02-15T07:00:00Z,26.8015,-97.4706,1015.1,11111222 
TCOON,ioos:station:TCOON:003:1,2009-02-15T08:00:00Z,26.8015,-97.4706,1015.5,11111222 
TCOON,ioos:station:TCOON:003:1,2009-02-15T09:00:00Z,26.8015,-97.4706,1015.3,11111222 
TCOON,ioos:station:TCOON:003:1,2009-02-15T10:00:00Z,26.8015,-97.4706,1015.5,11111222 
TCOON,ioos:station:TCOON:003:1,2009-02-15T11:00:00Z,26.8015,-97.4706,1016.5,11111222 
TCOON,ioos:station:TCOON:003:1,2009-02-15T12:00:00Z,26.8015,-97.4706,1017.1,11111222 
TCOON,ioos:station:TCOON:003:1,2009-02-15T13:00:00Z,26.8015,-97.4706,1017.6,11111222 
TCOON,ioos:station:TCOON:003:1,2009-02-15T14:00:00Z,26.8015,-97.4706,1018.4,11111222 
TCOON,ioos:station:TCOON:003:1,2009-02-15T15:00:00Z,26.8015,-97.4706,1019.2,11111222 
TCOON,ioos:station:TCOON:003:1,2009-02-15T16:00:00Z,26.8015,-97.4706,1020.1,11111222 
TCOON,ioos:station:TCOON:003:1,2009-02-15T17:00:00Z,26.8015,-97.4706,1020.0,11111222 
TCOON,ioos:station:TCOON:003:1,2009-02-15T18:00:00Z,26.8015,-97.4706,1019.4,11111222 
TCOON,ioos:station:TCOON:003:1,2009-02-15T19:00:00Z,26.8015,-97.4706,1018.7,11111222 
TCOON,ioos:station:TCOON:003:1,2009-02-15T20:00:00Z,26.8015,-97.4706,1018.8,11111222 
TCOON,ioos:station:TCOON:003:1,2009-02-15T21:00:00Z,26.8015,-97.4706,1019.1,11111222 
TCOON,ioos:station:TCOON:003:1,2009-02-15T22:00:00Z,26.8015,-97.4706,1019.4,11111222 
TCOON,ioos:station:TCOON:003:1,2009-02-15T23:00:00Z,26.8015,-97.4706,1020.2,11111222 
TCOON,ioos:station:TCOON:003:1,2009-02-16T00:00:00Z,26.8015,-97.4706,1021.0,11111222 
TCOON,ioos:station:TCOON:003:1,2009-02-16T01:00:00Z,26.8015,-97.4706,1021.9,11111222 
TCOON,ioos:station:TCOON:003:1,2009-02-16T02:00:00Z,26.8015,-97.4706,1022.3,11111222 
TCOON,ioos:station:TCOON:003:1,2009-02-16T03:00:00Z,26.8015,-97.4706,1022.4,11111222 
TCOON,ioos:station:TCOON:003:1,2009-02-16T04:00:00Z,26.8015,-97.4706,1022.6,11111222 
TCOON,ioos:station:TCOON:003:1,2009-02-16T05:00:00Z,26.8015,-97.4706,1023.1,11111222 